| time (UTC) | temp C | wind direction | speed KPH | gust KPH | rain 1hr cm | rain 24hr cm | rain mn cm | humidity % | barometer mb |
| 20260505100101 | 14 | 250 | 3.2 | 11.3 | 0.00 | 0.38 | 0.38 | 89 | 1000.9 |
| 20260505094558 | 13 | 205 | 1.6 | 9.7 | 0.00 | 0.38 | 0.38 | 92 | 1000.7 |
| 20260505093057 | 13 | 199 | 0.0 | 11.3 | 0.00 | 0.38 | 0.38 | 94 | 1000.7 |
| 20260505091620 | 12 | 183 | 1.6 | 6.4 | 0.03 | 0.38 | 0.38 | 95 | 1000.7 |
| 20260505090120 | 12 | 184 | 0.0 | 4.8 | 0.03 | 0.38 | 0.38 | 95 | 1000.6 |
| 20260505084612 | 12 | 192 | 0.0 | 4.8 | 0.03 | 0.38 | 0.38 | 95 | 1000.9 |
| 20260505083106 | 12 | 180 | 0.0 | 0.0 | 0.03 | 0.38 | 0.38 | 95 | 1001.0 |
| 20260505081601 | 12 | 182 | 0.0 | 6.4 | 0.00 | 0.36 | 0.36 | 95 | 1001.2 |
| 20260505080100 | 12 | 184 | 1.6 | 9.7 | 0.00 | 0.36 | 0.36 | 95 | 1001.3 |
| 20260505074549 | 12 | 194 | 1.6 | 11.3 | 0.00 | 0.36 | 0.36 | 94 | 1001.4 |
| 20260505073054 | 12 | 189 | 4.8 | 14.5 | 0.00 | 0.36 | 0.36 | 94 | 1001.5 |
| 20260505071552 | 12 | 160 | 3.2 | 11.3 | 0.08 | 0.36 | 0.36 | 94 | 1001.6 |
| 20260505070050 | 12 | 150 | 1.6 | 9.7 | 0.33 | 0.36 | 0.36 | 93 | 1001.7 |
| 20260505064540 | 13 | 144 | 1.6 | 6.4 | 0.36 | 0.36 | 0.36 | 93 | 1002.1 |
| 20260505063041 | 13 | 246 | 3.2 | 12.9 | 0.36 | 0.36 | 0.36 | 92 | 1002.9 |
| 20260505061536 | 13 | 194 | 4.8 | 22.5 | 0.28 | 0.28 | 0.28 | 91 | 1002.9 |
| 20260505060052 | 13 | 252 | 9.7 | 25.7 | 0.03 | 0.03 | 0.03 | 87 | 1002.8 |
| 20260505054527 | 15 | 244 | 8.0 | 25.7 | 0.00 | 0.00 | 0.00 | 80 | 1002.6 |
| 20260505053023 | 16 | 261 | 4.8 | 25.7 | 0.00 | 0.00 | 0.00 | 75 | 1002.6 |
| 20260505051521 | 16 | 182 | 6.4 | 22.5 | 0.00 | 0.00 | 0.00 | 71 | 1002.6 |
| 20260505050119 | 17 | 252 | 9.7 | 25.7 | 0.00 | 0.00 | 0.00 | 69 | 1002.7 |
| 20260505041512 | 17 | 239 | 8.0 | 22.5 | 0.00 | 0.00 | 0.00 | 69 | 1002.6 |
| 20260505040011 | 16 | 261 | 6.4 | 14.5 | 0.00 | 0.00 | 0.00 | 71 | 1002.6 |
| 20260505034508 | 16 | 179 | 1.6 | 8.0 | 0.00 | 0.00 | 0.00 | 70 | 1002.4 |
| 20260505033006 | 16 | 172 | 1.6 | 9.7 | 0.00 | 0.00 | 0.00 | 69 | 1002.6 |
| 20260505031504 | 16 | 185 | 0.0 | 16.1 | 0.00 | 0.00 | 0.00 | 69 | 1002.8 |
| 20260505030004 | 16 | 186 | 1.6 | 11.3 | 0.00 | 0.00 | 0.00 | 69 | 1003.0 |
| 20260505024503 | 16 | 196 | 3.2 | 14.5 | 0.00 | 0.00 | 0.00 | 68 | 1003.3 |
| 20260505023003 | 16 | 170 | 1.6 | 8.0 | 0.00 | 0.00 | 0.00 | 64 | 1003.2 |
| 20260505021502 | 15 | 184 | 8.0 | 19.3 | 0.00 | 0.00 | 0.00 | 63 | 1003.2 |
| 20260505020003 | 15 | 161 | 1.6 | 9.7 | 0.00 | 0.00 | 0.00 | 59 | 1003.2 |
| 20260505014503 | 16 | 178 | 0.0 | 9.7 | 0.00 | 0.00 | 0.00 | 58 | 1003.0 |
| 20260505013002 | 16 | 161 | 4.8 | 9.7 | 0.00 | 0.00 | 0.00 | 54 | 1002.9 |
| 20260505011500 | 17 | 186 | 0.0 | 8.0 | 0.00 | 0.00 | 0.00 | 51 | 1003.0 |
| 20260505010104 | 17 | 167 | 0.0 | 8.0 | 0.00 | 0.00 | 0.00 | 49 | 1002.9 |
| 20260505010002 | 17 | 167 | 0.0 | 8.0 | 0.00 | 0.00 | 0.00 | 49 | 1002.9 |
| 20260505004600 | 18 | 214 | 1.6 | 4.8 | 0.00 | 0.00 | 0.00 | 48 | 1002.9 |
| 20260505003108 | 19 | 225 | 1.6 | 11.3 | 0.00 | 0.00 | 0.00 | 45 | 1002.7 |
| 20260505003001 | 19 | 225 | 1.6 | 11.3 | 0.00 | 0.00 | 0.00 | 44 | 1002.9 |
| 20260505001602 | 19 | 237 | 1.6 | 14.5 | 0.00 | 0.00 | 0.00 | 44 | 1002.9 |
| 20260505001502 | 19 | 237 | 3.2 | 14.5 | 0.00 | 0.00 | 0.00 | 44 | 1002.9 |
| 20260504234558 | 20 | 242 | 4.8 | 17.7 | 0.00 | 0.00 | 0.00 | 43 | 1003.0 |
| 20260504233059 | 20 | 257 | 3.2 | 14.5 | 0.00 | 0.00 | 0.00 | 45 | 1002.8 |
| 20260504231556 | 21 | 207 | 8.0 | 20.9 | 0.00 | 0.00 | 0.00 | 45 | 1003.1 |
| 20260504230055 | 21 | 232 | 6.4 | 24.1 | 0.00 | 0.00 | 0.00 | 46 | 1003.1 |
| 20260504224553 | 21 | 246 | 6.4 | 17.7 | 0.00 | 0.00 | 0.00 | 47 | 1003.1 |
| 20260504223110 | 21 | 284 | 6.4 | 29.0 | 0.00 | 0.00 | 0.00 | 44 | 1003.2 |
| 20260504221553 | 21 | 210 | 11.3 | 20.9 | 0.00 | 0.00 | 0.00 | 40 | 1003.2 |
| 20260504220053 | 21 | 248 | 6.4 | 19.3 | 0.00 | 0.00 | 0.00 | 39 | 1003.1 |
| 20260504214551 | 21 | 247 | 14.5 | 30.6 | 0.00 | 0.00 | 0.00 | 38 | 1003.2 |
| 20260504213050 | 22 | 319 | 11.3 | 32.2 | 0.00 | 0.00 | 0.00 | 40 | 1003.1 |
| 20260504211633 | 21 | 297 | 8.0 | 22.5 | 0.00 | 0.00 | 0.00 | 42 | 1003.2 |
| 20260504210051 | 22 | 193 | 4.8 | 30.6 | 0.00 | 0.00 | 0.00 | 44 | 1003.3 |
| 20260504204545 | 21 | 256 | 12.9 | 24.1 | 0.00 | 0.00 | 0.00 | 43 | 1003.6 |
| 20260504203044 | 21 | 229 | 9.7 | 27.4 | 0.00 | 0.00 | 0.00 | 43 | 1003.6 |
| 20260504201543 | 22 | 173 | 9.7 | 33.8 | 0.00 | 0.00 | 0.00 | 42 | 1003.6 |
| 20260504200043 | 22 | 249 | 8.0 | 27.4 | 0.00 | 0.00 | 0.00 | 44 | 1003.6 |
| 20260504194547 | 21 | 283 | 8.0 | 24.1 | 0.00 | 0.00 | 0.00 | 46 | 1004.0 |
| 20260504193038 | 21 | 227 | 14.5 | 33.8 | 0.00 | 0.00 | 0.00 | 45 | 1004.3 |
| 20260504191537 | 21 | 198 | 8.0 | 32.2 | 0.00 | 0.00 | 0.00 | 49 | 1004.5 |
| 20260504190032 | 20 | 242 | 11.3 | 33.8 | 0.00 | 0.00 | 0.00 | 49 | 1004.8 |
| 20260504184543 | 20 | 246 | 12.9 | 30.6 | 0.00 | 0.00 | 0.00 | 51 | 1005.0 |
| 20260504183028 | 20 | 235 | 11.3 | 38.6 | 0.00 | 0.00 | 0.00 | 52 | 1005.0 |
| 20260504181526 | 20 | 234 | 11.3 | 24.1 | 0.00 | 0.00 | 0.00 | 53 | 1005.1 |
| 20260504180024 | 19 | 249 | 11.3 | 32.2 | 0.00 | 0.00 | 0.00 | 54 | 1005.5 |
| 20260504174520 | 19 | 277 | 16.1 | 35.4 | 0.00 | 0.00 | 0.00 | 55 | 1005.8 |
| 20260504173016 | 18 | 247 | 9.7 | 22.5 | 0.00 | 0.00 | 0.00 | 57 | 1005.9 |
| 20260504171513 | 17 | 198 | 14.5 | 37.0 | 0.00 | 0.00 | 0.00 | 55 | 1006.1 |